TimePST,TemperatureF,Dew PointF,Humidity,Sea Level PressureIn,VisibilityMPH,Wind Direction,Wind SpeedMPH,Gust SpeedMPH,PrecipitationIn,Events,Conditions,WindDirDegrees,DateUTC
12:53 AM,50.0,27.0,41,30.32,10.0,East,4.6,-,N/A,,Clear,90,2013-03-01 08:53:00
1:53 AM,46.9,30.0,52,30.31,10.0,North,3.5,-,N/A,,Clear,350,2013-03-01 09:53:00
2:53 AM,43.0,30.9,62,30.30,7.0,North,5.8,-,N/A,,Clear,360,2013-03-01 10:53:00
3:53 AM,45.0,28.0,52,30.30,5.0,Calm,Calm,-,N/A,,Haze,0,2013-03-01 11:53:00
4:53 AM,39.9,30.0,68,30.30,6.0,Calm,Calm,-,N/A,,Haze,0,2013-03-01 12:53:00
5:53 AM,39.0,30.0,70,30.30,6.0,Calm,Calm,-,N/A,,Haze,0,2013-03-01 13:53:00
6:53 AM,39.9,30.9,70,30.30,10.0,Calm,Calm,-,N/A,,Clear,0,2013-03-01 14:53:00
7:53 AM,53.1,37.0,55,30.30,10.0,NNW,4.6,-,N/A,,Clear,330,2013-03-01 15:53:00
8:53 AM,73.9,25.0,16,30.27,10.0,East,11.5,-,N/A,,Clear,90,2013-03-01 16:53:00
9:53 AM,80.1,18.0,10,30.26,10.0,ENE,10.4,20.7,N/A,,Clear,60,2013-03-01 17:53:00
10:53 AM,82.0,17.1,9,30.25,10.0,East,12.7,26.5,N/A,,Clear,80,2013-03-01 18:53:00
11:53 AM,82.9,17.1,9,30.23,10.0,East,10.4,20.7,N/A,,Clear,90,2013-03-01 19:53:00
1:53 PM,84.9,19.0,9,30.18,10.0,East,9.2,-,N/A,,Clear,90,2013-03-01 21:53:00
3:53 PM,84.0,21.0,10,30.15,10.0,NE,9.2,16.1,N/A,,Clear,50,2013-03-01 23:53:00
4:53 PM,81.0,21.9,11,30.15,10.0,NE,13.8,-,N/A,,Clear,50,2013-03-02 00:53:00
5:53 PM,77.0,21.0,12,30.17,10.0,Variable,3.5,-,N/A,,Clear,0,2013-03-02 01:53:00
6:53 PM,69.1,25.0,19,30.19,10.0,ESE,5.8,-,N/A,,Clear,110,2013-03-02 02:53:00
7:53 PM,69.1,24.1,18,30.20,10.0,Variable,4.6,-,N/A,,Clear,0,2013-03-02 03:53:00
8:53 PM,55.0,33.1,43,30.22,10.0,Calm,Calm,-,N/A,,Clear,0,2013-03-02 04:53:00
9:53 PM,52.0,35.1,53,30.23,10.0,Calm,Calm,-,N/A,,Clear,0,2013-03-02 05:53:00
10:53 PM,51.1,35.1,54,30.23,9.0,Calm,Calm,-,N/A,,Clear,0,2013-03-02 06:53:00
11:53 PM,51.1,35.1,54,30.24,9.0,Calm,Calm,-,N/A,,Clear,0,2013-03-02 07:53:00